TimeCST,TemperatureF,Dew PointF,Humidity,Sea Level PressureIn,VisibilityMPH,Wind Direction,Wind SpeedMPH,Gust SpeedMPH,PrecipitationIn,Events,Conditions,WindDirDegrees,DateUTC
12:53 AM,37.0,36.0,96,30.09,10.0,West,8.1,-,N/A,,Overcast,270,2014-02-05 06:53:00
1:53 AM,37.0,36.0,96,30.11,10.0,West,4.6,-,N/A,,Overcast,280,2014-02-05 07:53:00
2:53 AM,37.0,36.0,96,30.12,8.0,Calm,Calm,-,N/A,,Overcast,0,2014-02-05 08:53:00
3:20 AM,35.6,35.6,100,30.13,6.0,Calm,Calm,-,N/A,,Overcast,0,2014-02-05 09:20:00
3:31 AM,37.4,35.6,93,30.14,7.0,WNW,3.5,-,N/A,,Overcast,290,2014-02-05 09:31:00
3:53 AM,37.9,37.0,97,30.15,9.0,West,3.5,-,N/A,,Overcast,270,2014-02-05 09:53:00
4:24 AM,39.2,35.6,87,30.16,10.0,West,4.6,-,N/A,,Overcast,280,2014-02-05 10:24:00
4:51 AM,39.2,35.6,87,30.18,10.0,WNW,5.8,-,N/A,,Overcast,290,2014-02-05 10:51:00
4:53 AM,39.0,36.0,89,30.18,10.0,WNW,6.9,-,N/A,,Overcast,290,2014-02-05 10:53:00
5:53 AM,39.0,35.1,86,30.21,10.0,NNW,11.5,-,N/A,,Overcast,330,2014-02-05 11:53:00
6:10 AM,37.4,33.8,87,30.21,10.0,WNW,9.2,-,N/A,,Mostly Cloudy,300,2014-02-05 12:10:00
6:53 AM,36.0,33.1,89,30.24,10.0,NW,5.8,-,N/A,,Clear,320,2014-02-05 12:53:00
7:38 AM,37.4,33.8,87,30.26,10.0,North,11.5,-,N/A,,Mostly Cloudy,350,2014-02-05 13:38:00
7:53 AM,37.9,33.1,83,30.27,10.0,NNW,13.8,19.6,N/A,,Overcast,330,2014-02-05 13:53:00
8:18 AM,37.4,33.8,87,30.29,1.8,NNW,9.2,-,N/A,,Overcast,340,2014-02-05 14:18:00
8:33 AM,37.4,33.8,87,30.30,10.0,NNW,10.4,18.4,N/A,,Overcast,330,2014-02-05 14:33:00
8:53 AM,37.9,33.1,83,30.32,10.0,North,11.5,19.6,N/A,,Overcast,350,2014-02-05 14:53:00
9:53 AM,37.9,30.9,76,30.35,10.0,NNW,12.7,-,N/A,,Overcast,340,2014-02-05 15:53:00
10:53 AM,37.9,30.0,73,30.38,10.0,North,15.0,-,N/A,,Overcast,350,2014-02-05 16:53:00
11:53 AM,37.9,30.0,73,30.38,10.0,NNW,11.5,-,N/A,,Overcast,330,2014-02-05 17:53:00
12:31 PM,37.4,28.4,70,30.37,10.0,NNW,11.5,-,N/A,,Overcast,330,2014-02-05 18:31:00
12:53 PM,37.9,28.9,70,30.37,10.0,North,10.4,-,N/A,,Overcast,350,2014-02-05 18:53:00
1:53 PM,37.0,28.9,73,30.36,10.0,North,13.8,-,N/A,,Overcast,350,2014-02-05 19:53:00
2:12 PM,37.4,28.4,70,30.36,10.0,NNW,16.1,20.7,N/A,,Overcast,330,2014-02-05 20:12:00
2:39 PM,35.6,28.4,75,30.38,10.0,NNW,10.4,-,N/A,,Overcast,330,2014-02-05 20:39:00
2:53 PM,37.0,28.0,70,30.38,10.0,NNW,10.4,-,N/A,,Overcast,340,2014-02-05 20:53:00
3:53 PM,36.0,27.0,70,30.40,10.0,North,12.7,-,N/A,,Overcast,360,2014-02-05 21:53:00
4:14 PM,35.6,26.6,70,30.40,10.0,NNW,10.4,-,N/A,,Overcast,340,2014-02-05 22:14:00
4:53 PM,36.0,26.1,67,30.41,10.0,North,10.4,-,N/A,,Overcast,360,2014-02-05 22:53:00
5:13 PM,35.6,26.6,70,30.41,10.0,North,9.2,-,N/A,,Overcast,360,2014-02-05 23:13:00
5:53 PM,35.1,26.1,70,30.40,10.0,North,11.5,20.7,N/A,,Overcast,10,2014-02-05 23:53:00
6:53 PM,33.1,24.1,70,30.42,10.0,NNE,13.8,-,N/A,,Mostly Cloudy,20,2014-02-06 00:53:00
7:05 PM,32.0,24.8,75,30.43,10.0,NNE,10.4,21.9,N/A,,Scattered Clouds,20,2014-02-06 01:05:00
7:53 PM,33.1,24.1,70,30.44,10.0,NNE,10.4,17.3,N/A,,Overcast,20,2014-02-06 01:53:00
8:53 PM,32.0,24.1,73,30.46,10.0,North,16.1,20.7,N/A,,Overcast,10,2014-02-06 02:53:00
9:53 PM,32.0,23.0,69,30.47,10.0,North,10.4,19.6,N/A,,Overcast,10,2014-02-06 03:53:00
10:53 PM,32.0,23.0,69,30.47,10.0,NNE,10.4,-,N/A,,Overcast,30,2014-02-06 04:53:00
11:53 PM,30.9,24.1,76,30.45,10.0,NNE,10.4,19.6,N/A,,Overcast,30,2014-02-06 05:53:00